Location: Austin
(30.3000°N, 97.7500°W)
Time: 04:55:48
(UTC-06:00)

Resurs 01 Rocket - Pass Details

Date: 03 March 2026
Orbit: 627 x 635 km, 97.7° (Epoch: 6 March)

Event Time Altitude Azimuth Distance (km) Brightness Sun altitude
Rises 20:26:32 0° 198° (SSW) 2,913 5.1 -25.6°
Reaches altitude 10° 20:29:10 10° 214° (SW) 2,010 4.5 -26.2°
Maximum altitude 20:32:30 21° 264° (W) 1,418 4.1 -26.9°
Drops below altitude 10° 20:35:51 10° 314° (NW) 2,021 4.9 -27.6°
Sets 20:38:31 0° 330° (NNW) 2,933 5.6 -28.2°
